User: anonymous   Login
Location: Unspecified
(0.0000°N, 0.0000°E)
Time: 03:31:25
(UTC+02:00)
Language:

Meteor 1-31 Rocket - Orbit

View from above orbital plane
View from above orbital plane
View from above satellite
View from above satellite

Ground track
Ground track

The orbit data is extracted from the following two-line orbital elements,

1 12586U 81065B   16235.95132669 +.00000418 +00000-0 +29801-4 0  9997
2 12586 097.4634 218.6908 0020292 141.2968 218.9720 15.09562512907334
Epoch (UTC): 22 August 2016 22:49:54
Eccentricity: 0.0020292
inclination: 97.4634°
perigee height: 523 km
apogee height: 551 km
right ascension of ascending node: 218.6908°
argument of perigee: 141.2968°
revolutions per day: 15.09562512
mean anomaly at epoch: 218.9720°
orbit number at epoch: 90733

The dashed part of the orbit path shows where the satellite is in the earth's shadow,  

DLR